Regional Weather Roundup
Issued by NWS

Home | Current Version | Previous Version | Text Only | Print | Product List | Glossary Off
Versions: 1 2 3 4 5 6 7 8 9 10 11 12 13 14 15 16 17 18 19 20 21 22 23 24 25 26 27 28 29 30 31 32 33 34 35 36 37 38 39 40 41 42 43 44 45 46 47 48 49 50

000
ASUS43 KIND 281509
RWRIN

WEATHER ROUNDUP FOR INDIANA
NATIONAL WEATHER SERVICE INDIANAPOLIS IN
1100 AM EDT WED JUN 28 2017

NOTE: "FAIR" INDICATES FEW OR NO CLOUDS BELOW 12,000 FEET WITH NO
SIGNIFICANT WEATHER AND/OR OBSTRUCTIONS TO VISIBILITY.

* - STATION DOES NOT REPORT WEATHER SUCH AS PRECIPITATION OR FOG.

+ - STATION NOT QUALITY CONTROLLED BY THE NATIONAL WEATHER SERVICE.
    USE DATA WITH CAUTION...ESPECIALLY DEWPOINT AND RELATIVE
    HUMIDITY OBSERVATIONS.

INZ001>003-010>013-019-020-281600-
NORTHWEST INDIANA

CITY           SKY/WX    TMP DP  RH WIND       PRES   REMARKS
GARY /AIRPORT/ CLOUDY    70  50  49 S9G23     30.03S
KNOX *+        PTSUNNY   70  41  35 S15       30.07S
LA PORTE +     CLOUDY    70  52  52 S10       30.07S
MICHIGAN CITY+ CLOUDY    70  52  52 S8G18     30.05S
MONTICELLO +   PTSUNNY   70  53  56 S10G17    30.08R
RENSSELAER +   CLOUDY    72  45  37 S18G24    30.06F
VALPARAISO     CLOUDY    72  54  53 S14G21    30.05F

$$

LMZ046-743>745-281600-
SOUTHERN LAKE MICHIGAN

STATION/POSITION TIME  TEMP    WIND        PRES    WAVE
                       AIR SEA DIR/SP/G            HT
                 (UTC) (F)     (DEG/KT/KT) (MB)    (FT)
BURNS HARBOR     1440   70     180/ 11/ 19 1017.3F
MICHIGAN CITY    1440   68     160/ 15/ 19   N/A
5NW MICH CITY    1500   68 66  180/ 16/ 19   N/A     2

$$

INZ004-005-014>016-021>024-281600-
NORTH CENTRAL INDIANA

CITY           SKY/WX    TMP DP  RH WIND       PRES   REMARKS
ELKHART        PTSUNNY   70  50  49 S12G17    30.08F
GOSHEN         CLOUDY    71  49  45 S16       30.09F
LOGANSPORT +   CLOUDY    70  54  56 S12       30.11S
PERU/GRISSOM   MOSUNNY   72  54  53 S14       30.10F
ROCHESTER +    CLOUDY    72  52  49 S9G17     30.10S
SOUTH BEND     CLOUDY    70  52  52 S14       30.08S
WARSAW +       CLOUDY    68  50  52 S7G16     30.10S

$$

INZ006>009-017-018-025>027-281600-
NORTHEAST INDIANA

CITY           SKY/WX    TMP DP  RH WIND       PRES   REMARKS
ANGOLA *+      SUNNY     72  64  78 SW13      30.10S
AUBURN +       CLOUDY    72  48  43 S6        30.12R
FORT WAYNE     CLOUDY    71  51  49 SW13      30.13R
HUNTINGTON +   CLOUDY    70  51  50 S10G16    30.12S
KENDALLVILLE + CLOUDY    70  51  50 SW12G17   30.12R

$$

INZ028-029-035-036-043>045-051>053-281600-
WEST CENTRAL INDIANA

CITY           SKY/WX    TMP DP  RH WIND       PRES   REMARKS
CRAWFORDSVL +  CLOUDY    70  55  59 S13       30.11S
GREENCASTLE +  CLOUDY    70  54  56 S9        30.12F
LAFAYETTE      CLOUDY    70  55  59 S10G17    30.08F
TERRE HAUTE    MOSUNNY   73  55  53 S10       30.09F

$$

INZ030>032-037>040-046>048-054>057-064-065-281600-
CENTRAL INDIANA

CITY           SKY/WX    TMP DP  RH WIND       PRES   REMARKS
CP ATTERBURY + CLOUDY    72  55  56 S5        30.14F
COLUMBUS       SUNNY     72  54  53 S9        30.15S
FRANKFORT +    PTSUNNY   74  55  51 SW8       30.12S
GREENWOOD *+   MOSUNNY   72  52  49 S10       30.14F
INDIANAPOLIS   CLOUDY    72  54  53 S12       30.12F
-EAGLE CREEK   CLOUDY    72  53  51 SW9       30.12F
KOKOMO +       MOSUNNY   72  53  51 S16       30.12F
MT COMFORT *+  MOSUNNY   70  52  52 S10       30.14F
SHELBYVILLE    CLOUDY    73  53  49 S10       30.14F
ZIONSVILLE +   CLOUDY    70  52  53 S12       30.13F

$$

INZ033-034-041-042-049-050-058-059-281600-
EAST CENTRAL INDIANA

CITY           SKY/WX    TMP DP  RH WIND       PRES   REMARKS
MUNCIE         CLOUDY    73  51  46 S13       30.13F
RICHMOND +     MOSUNNY   68  52  56 S14       30.18R

$$

INZ060-061-067>069-081>083-085>088-281600-
SOUTHWEST INDIANA

CITY           SKY/WX    TMP DP  RH WIND       PRES   REMARKS
EVANSVILLE     MOSUNNY   76  57  51 S8        30.12F
HUNTINGBURG *+ SUNNY     75  59  57 S8        30.14S
WASHINGTON +   CLOUDY    73  55  52 S9        30.12F

$$

INZ062-063-066-070>080-084-089>092-281600-
SOUTH CENTRAL AND SOUTHEAST INDIANA

CITY           SKY/WX    TMP DP  RH WIND       PRES   REMARKS
BEDFORD +      CLOUDY    72  55  56 S6        30.14F
BLOOMINGTON    MOSUNNY   72  55  55 S9        30.13F
MADISON *+     SUNNY     73  52  46 S8        30.19S
NORTH VERNON + CLOUDY    72  54  53 S10       30.16S
SEYMOUR +      CLOUDY    73  55  53 S7        30.14F

$$




USA.gov is the U.S. government's official web portal to all federal, state and local government web resources and services.